VOYAGER:1:PRINTED,ON:,18-JUL-02:14:28:25:GROUP24
START_TIME,STOP_TIME,SECTOR,SCAN_DIR,EBD5FLUX,EBD5UNC,EB02FLUX,EB02UNC,EB03FLUX,EB03UNC,EB04FLUX,EB04UNC,EB05FLUX,EB05UNC
1979-02-27 00:00:42.290 ,1979-02-27 00:01:05.850 ,5,1,2.250E+04,2.250E+04,1.742E+03,871.,892.,446.,709.,409.,129.,129.
1979-02-27 00:01:06.290 ,1979-02-27 00:01:29.850 ,6,1,0.000E+00,0.000E+00,5.461E+03,2.731E+03,2.079E+03,1.200E+03,0.000E+00,0.000E+00,413.,413.
1979-02-27 00:01:30.290 ,1979-02-27 00:01:53.850 ,7,1,0.000E+00,0.000E+00,2.203E+03,985.,653.,377.,337.,337.,78.8,78.8
1979-02-27 00:01:54.290 ,1979-02-27 00:02:35.850 ,8,1,5.473E+03,5.473E+03,1.003E+04,2.138E+03,3.691E+03,923.,1.570E+03,785.,152.,152.
1979-02-27 00:02:35.910 ,1979-02-27 00:02:41.850 ,8,-1,-1.00,-1.00,1.045E+04,3.695E+03,7.058E+03,2.231E+03,4.274E+03,1.911E+03,0.000E+00,0.000E+00
1979-02-27 00:02:42.290 ,1979-02-27 00:03:05.850 ,7,-1,1.181E+04,8.350E+03,1.237E+03,1.237E+03,1.417E+03,1.002E+03,0.000E+00,0.000E+00,0.000E+00,0.000E+00
1979-02-27 00:03:06.290 ,1979-02-27 00:03:29.850 ,6,-1,0.000E+00,0.000E+00,3.557E+03,1.257E+03,861.,430.,566.,400.,158.,111.
1979-02-27 00:03:30.290 ,1979-02-27 00:03:53.850 ,5,-1,0.000E+00,0.000E+00,1.335E+03,1.335E+03,701.,701.,0.000E+00,0.000E+00,0.000E+00,0.000E+00
1979-02-27 00:03:54.290 ,1979-02-27 00:04:17.850 ,4,-1,3.810E+04,2.694E+04,3.143E+03,1.188E+03,189.,189.,311.,220.,109.,109.
1979-02-27 00:04:18.290 ,1979-02-27 00:04:41.850 ,3,-1,1.181E+04,8.350E+03,1.415E+03,1.415E+03,0.000E+00,0.000E+00,0.000E+00,0.000E+00,0.000E+00,0.000E+00
1979-02-27 00:04:42.290 ,1979-02-27 00:05:05.850 ,2,-1,0.000E+00,0.000E+00,2.259E+03,1.010E+03,197.,197.,0.000E+00,0.000E+00,0.000E+00,0.000E+00
1979-02-27 00:05:05.920 ,1979-02-27 00:05:30.290 ,1,-1,0.000E+00,0.000E+00,0.000E+00,0.000E+00,0.000E+00,0.000E+00,0.000E+00,0.000E+00,0.000E+00,0.000E+00
1979-02-27 00:05:30.290 ,1979-02-27 00:05:53.850 ,1,1,0.000E+00,0.000E+00,3.132E+03,1.183E+03,638.,368.,337.,337.,93.6,66.2
1979-02-27 00:05:54.290 ,1979-02-27 00:06:17.850 ,2,1,5.905E+03,5.905E+03,2.563E+03,1.812E+03,2.124E+03,1.226E+03,0.000E+00,0.000E+00,0.000E+00,0.000E+00
1979-02-27 00:06:18.290 ,1979-02-27 00:06:41.850 ,3,1,0.000E+00,0.000E+00,2.627E+03,1.072E+03,877.,438.,709.,409.,0.000E+00,0.000E+00
1979-02-27 00:06:42.290 ,1979-02-27 00:07:05.850 ,4,1,1.181E+04,8.350E+03,4.248E+03,2.453E+03,654.,654.,0.000E+00,0.000E+00,413.,413.
1979-02-27 00:07:06.290 ,1979-02-27 00:07:29.850 ,5,1,0.000E+00,0.000E+00,1.699E+03,849.,893.,446.,380.,380.,78.8,78.8
1979-02-27 00:07:30.290 ,1979-02-27 00:07:53.850 ,6,1,2.362E+04,1.181E+04,1.335E+03,1.335E+03,701.,701.,0.000E+00,0.000E+00,0.000E+00,0.000E+00
1979-02-27 00:07:54.290 ,1979-02-27 00:08:17.850 ,7,1,0.000E+00,0.000E+00,1.820E+03,910.,440.,311.,286.,286.,0.000E+00,0.000E+00
1979-02-27 00:08:18.290 ,1979-02-27 00:08:59.850 ,8,1,8.959E+03,5.173E+03,1.575E+04,2.784E+03,3.194E+03,853.,650.,650.,82.7,82.7
1979-02-27 00:08:59.910 ,1979-02-27 00:09:05.850 ,8,-1,-1.00,-1.00,1.008E+04,3.562E+03,4.560E+03,1.723E+03,1.399E+03,1.399E+03,0.000E+00,0.000E+00
1979-02-27 00:09:06.290 ,1979-02-27 00:09:29.850 ,7,-1,0.000E+00,0.000E+00,4.248E+03,2.453E+03,654.,654.,0.000E+00,0.000E+00,0.000E+00,0.000E+00
1979-02-27 00:09:30.290 ,1979-02-27 00:09:53.850 ,6,-1,0.000E+00,0.000E+00,3.151E+03,1.190E+03,0.000E+00,0.000E+00,0.000E+00,0.000E+00,118.,118.
1979-02-27 00:09:54.290 ,1979-02-27 00:10:17.850 ,5,-1,5.905E+03,5.905E+03,1.237E+03,1.237E+03,1.417E+03,1.002E+03,0.000E+00,0.000E+00,0.000E+00,0.000E+00
1979-02-27 00:10:18.290 ,1979-02-27 00:10:41.850 ,4,-1,0.000E+00,0.000E+00,1.663E+03,832.,1.123E+03,502.,416.,416.,78.8,78.8
1979-02-27 00:10:42.290 ,1979-02-27 00:11:05.850 ,3,-1,0.000E+00,0.000E+00,0.000E+00,0.000E+00,0.000E+00,0.000E+00,0.000E+00,0.000E+00,0.000E+00,0.000E+00
1979-02-27 00:11:06.290 ,1979-02-27 00:11:29.850 ,2,-1,0.000E+00,0.000E+00,3.151E+03,1.190E+03,0.000E+00,0.000E+00,0.000E+00,0.000E+00,236.,167.
1979-02-27 00:11:29.910 ,1979-02-27 00:11:54.290 ,1,-1,0.000E+00,0.000E+00,0.000E+00,0.000E+00,-1.00,-1.00,0.000E+00,0.000E+00,0.000E+00,0.000E+00
1979-02-27 00:11:54.290 ,1979-02-27 00:12:17.850 ,1,1,2.067E+04,2.067E+04,2.587E+03,1.056E+03,1.108E+03,496.,0.000E+00,0.000E+00,0.000E+00,0.000E+00
1979-02-27 00:12:18.290 ,1979-02-27 00:12:41.850 ,2,1,0.000E+00,0.000E+00,5.659E+03,2.829E+03,0.000E+00,0.000E+00,0.000E+00,0.000E+00,0.000E+00,0.000E+00
1979-02-27 00:12:42.290 ,1979-02-27 00:13:05.850 ,3,1,0.000E+00,0.000E+00,1.699E+03,849.,893.,446.,566.,400.,0.000E+00,0.000E+00
1979-02-27 00:13:06.290 ,1979-02-27 00:13:29.850 ,4,1,5.905E+03,5.905E+03,2.669E+03,1.887E+03,1.403E+03,992.,0.000E+00,0.000E+00,0.000E+00,0.000E+00
1979-02-27 00:13:30.290 ,1979-02-27 00:13:53.850 ,5,1,0.000E+00,0.000E+00,394.,394.,451.,319.,283.,283.,0.000E+00,0.000E+00
1979-02-27 00:13:54.290 ,1979-02-27 00:14:17.850 ,6,1,0.000E+00,0.000E+00,1.167E+03,1.167E+03,2.112E+03,1.220E+03,0.000E+00,0.000E+00,0.000E+00,0.000E+00
1979-02-27 00:14:18.290 ,1979-02-27 00:14:41.850 ,7,1,2.067E+04,2.067E+04,4.055E+03,1.351E+03,624.,360.,0.000E+00,0.000E+00,354.,205.
1979-02-27 00:14:42.290 ,1979-02-27 00:15:23.850 ,8,1,1.378E+04,7.955E+03,6.434E+03,1.719E+03,3.029E+03,840.,1.217E+03,703.,0.000E+00,0.000E+00
1979-02-27 00:15:23.910 ,1979-02-27 00:15:29.850 ,8,-1,-1.00,-1.00,7.474E+03,3.050E+03,3.928E+03,1.603E+03,1.315E+03,1.315E+03,226.,226.
1979-02-27 00:15:30.290 ,1979-02-27 00:15:53.850 ,7,-1,5.905E+03,5.905E+03,2.829E+03,2.001E+03,0.000E+00,0.000E+00,0.000E+00,0.000E+00,0.000E+00,0.000E+00
1979-02-27 00:15:54.290 ,1979-02-27 00:16:17.850 ,6,-1,0.000E+00,0.000E+00,4.149E+03,1.383E+03,639.,369.,340.,340.,0.000E+00,0.000E+00
1979-02-27 00:16:18.290 ,1979-02-27 00:16:41.850 ,5,-1,1.181E+04,8.350E+03,1.113E+03,1.113E+03,2.789E+03,1.394E+03,0.000E+00,0.000E+00,0.000E+00,0.000E+00
1979-02-27 00:16:42.290 ,1979-02-27 00:17:05.850 ,4,-1,1.379E+04,1.379E+04,404.,404.,451.,319.,283.,283.,78.8,78.8
1979-02-27 00:17:06.290 ,1979-02-27 00:17:29.850 ,3,-1,5.905E+03,5.905E+03,2.893E+03,2.045E+03,1.399E+03,989.,0.000E+00,0.000E+00,0.000E+00,0.000E+00
1979-02-27 00:17:30.290 ,1979-02-27 00:17:53.850 ,2,-1,2.067E+04,2.067E+04,4.164E+03,1.388E+03,408.,289.,537.,310.,0.000E+00,0.000E+00
1979-02-27 00:17:53.920 ,1979-02-27 00:18:18.290 ,1,-1,1.378E+04,1.378E+04,0.000E+00,0.000E+00,0.000E+00,0.000E+00,0.000E+00,0.000E+00,0.000E+00,0.000E+00
1979-02-27 00:18:18.290 ,1979-02-27 00:18:41.850 ,1,1,0.000E+00,0.000E+00,3.617E+03,1.278E+03,415.,293.,0.000E+00,0.000E+00,0.000E+00,0.000E+00
1979-02-27 00:18:42.290 ,1979-02-27 00:19:05.850 ,2,1,0.000E+00,0.000E+00,5.659E+03,2.829E+03,0.000E+00,0.000E+00,0.000E+00,0.000E+00,0.000E+00,0.000E+00
1979-02-27 00:19:06.290 ,1979-02-27 00:19:29.850 ,3,1,2.067E+04,2.067E+04,1.298E+03,749.,942.,471.,0.000E+00,0.000E+00,382.,220.
1979-02-27 00:19:30.290 ,1979-02-27 00:19:53.850 ,4,1,2.362E+04,1.181E+04,5.684E+03,2.842E+03,635.,635.,0.000E+00,0.000E+00,0.000E+00,0.000E+00
1979-02-27 00:19:54.290 ,1979-02-27 00:20:11.850 ,5,1,0.000E+00,0.000E+00,1.933E+03,1.116E+03,1.016E+03,587.,0.000E+00,0.000E+00,367.,260.
1979-02-27 03:23:47.920 ,1979-02-27 03:24:11.920 ,9,0,8.267E+03,8.267E+03,1.993E+03,1.151E+03,665.,470.,0.000E+00,0.000E+00,184.,184.
1979-02-27 03:24:11.920 ,1979-02-27 03:24:17.850 ,1,1,-1.00,-1.00,3.965E+03,2.289E+03,610.,610.,0.000E+00,0.000E+00,331.,331.
1979-02-27 03:24:18.290 ,1979-02-27 03:24:41.850 ,2,1,1.772E+04,1.023E+04,4.004E+03,2.312E+03,2.104E+03,1.215E+03,0.000E+00,0.000E+00,1.240E+03,716.
1979-02-27 03:24:42.290 ,1979-02-27 03:25:05.850 ,3,1,0.000E+00,0.000E+00,2.229E+03,997.,1.141E+03,510.,426.,426.,79.7,79.7
1979-02-27 03:25:06.290 ,1979-02-27 03:25:29.850 ,4,1,5.905E+03,5.905E+03,2.795E+03,1.976E+03,676.,676.,0.000E+00,0.000E+00,0.000E+00,0.000E+00
1979-02-27 03:25:30.290 ,1979-02-27 03:25:53.850 ,5,1,1.115E+04,1.115E+04,4.055E+03,1.351E+03,624.,360.,498.,352.,191.,110.
1979-02-27 03:25:54.290 ,1979-02-27 03:26:17.850 ,6,1,1.181E+04,8.350E+03,0.000E+00,0.000E+00,1.313E+03,928.,889.,889.,0.000E+00,0.000E+00
1979-02-27 03:26:18.290 ,1979-02-27 03:26:41.850 ,7,1,0.000E+00,0.000E+00,4.365E+03,1.380E+03,1.538E+03,581.,718.,508.,109.,109.
1979-02-27 03:26:42.290 ,1979-02-27 03:27:23.850 ,8,1,0.000E+00,0.000E+00,1.121E+04,2.287E+03,4.154E+03,979.,2.116E+03,864.,274.,194.
1979-02-27 03:27:23.920 ,1979-02-27 03:27:29.850 ,8,-1,-1.00,-1.00,9.966E+03,3.522E+03,5.238E+03,1.851E+03,2.818E+03,1.627E+03,0.000E+00,0.000E+00
1979-02-27 03:27:30.290 ,1979-02-27 03:27:53.850 ,7,-1,0.000E+00,0.000E+00,2.795E+03,1.976E+03,676.,676.,0.000E+00,0.000E+00,0.000E+00,0.000E+00
1979-02-27 03:27:54.290 ,1979-02-27 03:28:17.850 ,6,-1,0.000E+00,0.000E+00,1.274E+03,736.,670.,387.,337.,337.,78.8,78.8
1979-02-27 03:28:18.290 ,1979-02-27 03:28:41.850 ,5,-1,0.000E+00,0.000E+00,7.074E+03,3.163E+03,0.000E+00,0.000E+00,1.175E+03,1.175E+03,261.,261.
1979-02-27 03:28:42.290 ,1979-02-27 03:29:05.850 ,4,-1,0.000E+00,0.000E+00,4.485E+03,1.418E+03,846.,423.,380.,380.,0.000E+00,0.000E+00
1979-02-27 03:29:06.290 ,1979-02-27 03:29:29.850 ,3,-1,0.000E+00,0.000E+00,4.248E+03,2.453E+03,654.,654.,0.000E+00,0.000E+00,413.,413.
1979-02-27 03:29:30.290 ,1979-02-27 03:29:53.850 ,2,-1,0.000E+00,0.000E+00,4.518E+03,1.428E+03,394.,279.,425.,300.,109.,109.
1979-02-27 03:29:53.920 ,1979-02-27 03:30:18.290 ,1,-1,1.378E+04,1.378E+04,0.000E+00,0.000E+00,0.000E+00,0.000E+00,0.000E+00,0.000E+00,0.000E+00,0.000E+00
1979-02-27 03:30:18.290 ,1979-02-27 03:30:41.850 ,1,1,0.000E+00,0.000E+00,3.132E+03,1.183E+03,638.,368.,498.,352.,109.,109.
1979-02-27 03:30:42.290 ,1979-02-27 03:31:05.850 ,2,1,1.181E+04,8.350E+03,2.669E+03,1.887E+03,1.403E+03,992.,0.000E+00,0.000E+00,827.,585.
1979-02-27 03:31:06.290 ,1979-02-27 03:31:29.850 ,3,1,0.000E+00,0.000E+00,4.518E+03,1.428E+03,394.,279.,425.,300.,109.,109.
1979-02-27 03:31:30.290 ,1979-02-27 03:31:53.850 ,4,1,1.772E+04,1.023E+04,1.167E+03,1.167E+03,2.112E+03,1.220E+03,1.058E+03,1.058E+03,0.000E+00,0.000E+00
1979-02-27 03:31:54.290 ,1979-02-27 03:32:17.850 ,5,1,2.067E+04,2.067E+04,2.542E+03,1.037E+03,1.798E+03,635.,961.,555.,0.000E+00,0.000E+00
1979-02-27 03:32:18.290 ,1979-02-27 03:32:41.850 ,6,1,5.905E+03,5.905E+03,2.795E+03,1.976E+03,676.,676.,0.000E+00,0.000E+00,0.000E+00,0.000E+00
1979-02-27 03:32:42.290 ,1979-02-27 03:33:05.850 ,7,1,0.000E+00,0.000E+00,3.011E+03,1.138E+03,1.331E+03,543.,448.,448.,78.8,78.8
1979-02-27 03:33:06.290 ,1979-02-27 03:33:47.850 ,8,1,7.199E+03,7.199E+03,1.173E+04,2.346E+03,4.003E+03,971.,2.593E+03,864.,199.,199.
1979-02-27 03:33:47.920 ,1979-02-27 03:33:53.850 ,8,-1,-1.00,-1.00,7.844E+03,3.201E+03,5.269E+03,1.862E+03,1.475E+03,1.475E+03,0.000E+00,0.000E+00
1979-02-27 03:33:54.290 ,1979-02-27 03:34:17.850 ,7,-1,0.000E+00,0.000E+00,0.000E+00,0.000E+00,0.000E+00,0.000E+00,0.000E+00,0.000E+00,0.000E+00,0.000E+00
1979-02-27 03:34:18.290 ,1979-02-27 03:34:41.850 ,6,-1,0.000E+00,0.000E+00,3.051E+03,1.153E+03,1.100E+03,492.,0.000E+00,0.000E+00,118.,118.
1979-02-27 03:34:42.290 ,1979-02-27 03:35:05.850 ,5,-1,1.181E+04,8.350E+03,2.563E+03,1.812E+03,2.124E+03,1.226E+03,0.000E+00,0.000E+00,0.000E+00,0.000E+00
1979-02-27 03:35:06.290 ,1979-02-27 03:35:29.850 ,4,-1,0.000E+00,0.000E+00,3.051E+03,1.153E+03,1.100E+03,492.,0.000E+00,0.000E+00,118.,118.
1979-02-27 03:35:30.290 ,1979-02-27 03:35:53.850 ,3,-1,5.905E+03,5.905E+03,2.669E+03,1.887E+03,1.403E+03,992.,0.000E+00,0.000E+00,0.000E+00,0.000E+00
1979-02-27 03:35:54.290 ,1979-02-27 03:36:17.850 ,2,-1,0.000E+00,0.000E+00,1.738E+03,869.,662.,382.,337.,337.,0.000E+00,0.000E+00
1979-02-27 03:36:17.920 ,1979-02-27 03:36:42.290 ,1,-1,0.000E+00,0.000E+00,1.981E+04,1.981E+04,0.000E+00,0.000E+00,0.000E+00,0.000E+00,0.000E+00,0.000E+00
1979-02-27 03:36:42.290 ,1979-02-27 03:37:05.850 ,1,1,5.841E+03,5.841E+03,2.242E+03,1.003E+03,423.,299.,283.,283.,100.,57.8
1979-02-27 03:37:06.290 ,1979-02-27 03:37:29.850 ,2,1,0.000E+00,0.000E+00,1.415E+03,1.415E+03,0.000E+00,0.000E+00,0.000E+00,0.000E+00,0.000E+00,0.000E+00
1979-02-27 03:37:30.290 ,1979-02-27 03:37:53.850 ,3,1,0.000E+00,0.000E+00,1.778E+03,889.,677.,391.,644.,372.,0.000E+00,0.000E+00
1979-02-27 03:37:54.290 ,1979-02-27 03:38:17.850 ,4,1,0.000E+00,0.000E+00,2.563E+03,1.812E+03,2.124E+03,1.226E+03,0.000E+00,0.000E+00,0.000E+00,0.000E+00
1979-02-27 03:38:18.290 ,1979-02-27 03:38:41.850 ,5,1,0.000E+00,0.000E+00,1.663E+03,832.,1.123E+03,502.,631.,446.,0.000E+00,0.000E+00
1979-02-27 03:38:42.290 ,1979-02-27 03:39:05.850 ,6,1,5.905E+03,5.905E+03,0.000E+00,0.000E+00,657.,657.,0.000E+00,0.000E+00,0.000E+00,0.000E+00
1979-02-27 03:39:06.290 ,1979-02-27 03:39:29.850 ,7,1,2.067E+04,2.067E+04,2.768E+03,1.130E+03,415.,294.,0.000E+00,0.000E+00,0.000E+00,0.000E+00
1979-02-27 03:39:30.290 ,1979-02-27 03:40:11.850 ,8,1,0.000E+00,0.000E+00,8.025E+03,1.891E+03,4.108E+03,968.,2.800E+03,885.,0.000E+00,0.000E+00
1979-02-27 03:40:11.920 ,1979-02-27 03:40:17.850 ,8,-1,-1.00,-1.00,2.909E+03,2.057E+03,1.302E+03,921.,829.,829.,0.000E+00,0.000E+00
1979-02-27 03:40:18.290 ,1979-02-27 03:40:41.850 ,7,-1,5.905E+03,5.905E+03,5.684E+03,2.842E+03,635.,635.,668.,668.,0.000E+00,0.000E+00
1979-02-27 03:40:42.290 ,1979-02-27 03:41:05.850 ,6,-1,0.000E+00,0.000E+00,3.162E+03,1.195E+03,410.,290.,283.,283.,78.8,78.8
1979-02-27 03:41:06.290 ,1979-02-27 03:41:29.850 ,5,-1,5.905E+03,5.905E+03,2.829E+03,2.001E+03,0.000E+00,0.000E+00,0.000E+00,0.000E+00,827.,585.
1979-02-27 03:41:30.290 ,1979-02-27 03:41:53.850 ,4,-1,0.000E+00,0.000E+00,1.779E+03,889.,430.,304.,0.000E+00,0.000E+00,236.,167.
1979-02-27 03:41:54.290 ,1979-02-27 03:42:17.850 ,3,-1,5.905E+03,5.905E+03,0.000E+00,0.000E+00,0.000E+00,0.000E+00,2.350E+03,1.662E+03,0.000E+00,0.000E+00
1979-02-27 03:42:18.290 ,1979-02-27 03:42:41.850 ,2,-1,0.000E+00,0.000E+00,3.516E+03,1.243E+03,1.092E+03,488.,0.000E+00,0.000E+00,0.000E+00,0.000E+00
1979-02-27 03:42:41.920 ,1979-02-27 03:43:06.290 ,1,-1,0.000E+00,0.000E+00,1.981E+04,1.981E+04,0.000E+00,0.000E+00,0.000E+00,0.000E+00,0.000E+00,0.000E+00
1979-02-27 03:43:06.290 ,1979-02-27 03:43:29.850 ,1,1,2.067E+04,2.067E+04,2.548E+03,1.040E+03,1.339E+03,547.,0.000E+00,0.000E+00,118.,118.
1979-02-27 03:43:30.290 ,1979-02-27 03:43:53.850 ,2,1,5.905E+03,5.905E+03,2.669E+03,1.887E+03,1.403E+03,992.,0.000E+00,0.000E+00,0.000E+00,0.000E+00
1979-02-27 03:43:54.290 ,1979-02-27 03:44:17.850 ,3,1,0.000E+00,0.000E+00,3.522E+03,1.245E+03,1.553E+03,587.,0.000E+00,0.000E+00,118.,118.
1979-02-27 03:44:18.290 ,1979-02-27 03:44:41.850 ,4,1,1.181E+04,8.350E+03,1.335E+03,1.335E+03,701.,701.,668.,668.,0.000E+00,0.000E+00
1979-02-27 03:44:42.290 ,1979-02-27 03:45:05.850 ,5,1,0.000E+00,0.000E+00,2.296E+03,1.027E+03,422.,298.,0.000E+00,0.000E+00,118.,118.
1979-02-27 03:45:06.290 ,1979-02-27 03:45:29.850 ,6,1,5.905E+03,5.905E+03,1.335E+03,1.335E+03,701.,701.,0.000E+00,0.000E+00,0.000E+00,0.000E+00
1979-02-27 03:45:30.290 ,1979-02-27 03:45:53.850 ,7,1,0.000E+00,0.000E+00,3.644E+03,1.288E+03,859.,430.,0.000E+00,0.000E+00,0.000E+00,0.000E+00
1979-02-27 03:45:54.290 ,1979-02-27 03:46:35.850 ,8,1,6.649E+03,6.649E+03,4.821E+03,1.453E+03,4.961E+03,1.109E+03,2.436E+03,920.,184.,184.
1979-02-27 03:46:35.920 ,1979-02-27 03:46:41.850 ,8,-1,-1.00,-1.00,8.056E+03,3.288E+03,3.918E+03,1.599E+03,2.923E+03,1.462E+03,622.,440.
1979-02-27 03:46:42.290 ,1979-02-27 03:47:05.850 ,7,-1,0.000E+00,0.000E+00,1.345E+03,1.345E+03,1.417E+03,1.002E+03,0.000E+00,0.000E+00,0.000E+00,0.000E+00
1979-02-27 03:47:06.290 ,1979-02-27 03:47:29.850 ,6,-1,1.379E+04,1.379E+04,1.702E+03,851.,1.149E+03,514.,629.,445.,158.,111.
1979-02-27 03:47:30.290 ,1979-02-27 03:47:53.850 ,5,-1,0.000E+00,0.000E+00,4.248E+03,2.453E+03,654.,654.,668.,668.,0.000E+00,0.000E+00
1979-02-27 03:47:54.290 ,1979-02-27 03:48:17.850 ,4,-1,1.379E+04,1.379E+04,4.911E+03,1.480E+03,1.068E+03,478.,416.,416.,78.8,78.8
1979-02-27 03:48:18.290 ,1979-02-27 03:48:41.850 ,3,-1,0.000E+00,0.000E+00,4.128E+03,2.383E+03,1.378E+03,974.,1.335E+03,944.,0.000E+00,0.000E+00
1979-02-27 03:48:42.290 ,1979-02-27 03:49:05.850 ,2,-1,0.000E+00,0.000E+00,3.236E+03,1.223E+03,409.,289.,283.,283.,78.8,78.8
1979-02-27 03:49:05.920 ,1979-02-27 03:49:30.290 ,1,-1,1.378E+04,1.378E+04,3.961E+04,2.801E+04,0.000E+00,0.000E+00,0.000E+00,0.000E+00,1.653E+03,1.653E+03
1979-02-27 03:49:30.290 ,1979-02-27 03:49:53.850 ,1,1,0.000E+00,0.000E+00,3.617E+03,1.278E+03,404.,286.,283.,283.,93.6,66.2
1979-02-27 03:49:54.290 ,1979-02-27 03:50:17.850 ,2,1,5.905E+03,5.905E+03,7.047E+03,3.151E+03,1.329E+03,940.,0.000E+00,0.000E+00,0.000E+00,0.000E+00
1979-02-27 03:50:18.290 ,1979-02-27 03:50:41.850 ,3,1,0.000E+00,0.000E+00,3.557E+03,1.257E+03,861.,430.,0.000E+00,0.000E+00,354.,205.
1979-02-27 03:50:42.290 ,1979-02-27 03:51:05.850 ,4,1,0.000E+00,0.000E+00,8.385E+03,3.422E+03,2.029E+03,1.171E+03,1.058E+03,1.058E+03,0.000E+00,0.000E+00
1979-02-27 03:51:06.290 ,1979-02-27 03:51:29.850 ,5,1,0.000E+00,0.000E+00,3.162E+03,1.195E+03,410.,290.,538.,311.,194.,137.
1979-02-27 03:51:30.290 ,1979-02-27 03:51:53.850 ,6,1,0.000E+00,0.000E+00,1.335E+03,1.335E+03,701.,701.,0.000E+00,0.000E+00,0.000E+00,0.000E+00
1979-02-27 03:51:54.290 ,1979-02-27 03:52:17.850 ,7,1,4.134E+04,2.923E+04,2.162E+03,967.,885.,442.,573.,405.,0.000E+00,0.000E+00
1979-02-27 03:52:18.290 ,1979-02-27 03:52:59.850 ,8,1,1.241E+03,1.241E+03,1.009E+04,2.150E+03,4.898E+03,1.068E+03,383.,383.,103.,59.5
1979-02-27 03:52:59.920 ,1979-02-27 03:53:05.850 ,8,-1,-1.00,-1.00,1.385E+04,4.377E+03,4.107E+03,1.676E+03,2.564E+03,1.481E+03,0.000E+00,0.000E+00
1979-02-27 03:53:06.290 ,1979-02-27 03:53:29.850 ,7,-1,5.905E+03,5.905E+03,4.571E+03,2.639E+03,0.000E+00,0.000E+00,0.000E+00,0.000E+00,0.000E+00,0.000E+00
1979-02-27 03:53:30.290 ,1979-02-27 03:53:53.850 ,6,-1,0.000E+00,0.000E+00,4.252E+03,1.417E+03,621.,359.,0.000E+00,0.000E+00,118.,118.
1979-02-27 03:53:54.290 ,1979-02-27 03:54:17.850 ,5,-1,5.905E+03,5.905E+03,7.074E+03,3.163E+03,0.000E+00,0.000E+00,0.000E+00,0.000E+00,0.000E+00,0.000E+00
1979-02-27 03:54:18.290 ,1979-02-27 03:54:41.850 ,4,-1,0.000E+00,0.000E+00,2.701E+03,1.102E+03,0.000E+00,0.000E+00,1.122E+03,648.,129.,129.
1979-02-27 03:54:42.290 ,1979-02-27 03:55:05.850 ,3,-1,0.000E+00,0.000E+00,4.248E+03,2.453E+03,654.,654.,976.,690.,522.,369.
1979-02-27 03:55:06.290 ,1979-02-27 03:55:29.850 ,2,-1,0.000E+00,0.000E+00,2.548E+03,1.040E+03,1.339E+03,547.,673.,476.,0.000E+00,0.000E+00
1979-02-27 03:55:29.920 ,1979-02-27 03:55:54.290 ,1,-1,0.000E+00,0.000E+00,1.981E+04,1.981E+04,0.000E+00,0.000E+00,0.000E+00,0.000E+00,0.000E+00,0.000E+00
1979-02-27 03:55:54.290 ,1979-02-27 03:56:17.850 ,1,1,2.067E+04,2.067E+04,4.021E+03,1.340E+03,853.,427.,0.000E+00,0.000E+00,0.000E+00,0.000E+00
1979-02-27 03:56:18.290 ,1979-02-27 03:56:41.850 ,2,1,1.772E+04,1.023E+04,4.581E+03,2.645E+03,649.,649.,0.000E+00,0.000E+00,0.000E+00,0.000E+00
1979-02-27 03:56:42.290 ,1979-02-27 03:57:05.850 ,3,1,0.000E+00,0.000E+00,1.314E+03,758.,438.,310.,283.,283.,0.000E+00,0.000E+00
1979-02-27 03:57:06.290 ,1979-02-27 03:57:29.850 ,4,1,0.000E+00,0.000E+00,2.795E+03,1.976E+03,676.,676.,668.,668.,261.,261.
1979-02-27 03:57:30.290 ,1979-02-27 03:57:53.850 ,5,1,0.000E+00,0.000E+00,2.768E+03,1.130E+03,415.,294.,0.000E+00,0.000E+00,236.,167.
1979-02-27 03:57:54.290 ,1979-02-27 03:58:17.850 ,6,1,5.905E+03,5.905E+03,2.669E+03,1.887E+03,1.403E+03,992.,0.000E+00,0.000E+00,0.000E+00,0.000E+00
1979-02-27 03:58:18.290 ,1979-02-27 03:58:41.850 ,7,1,0.000E+00,0.000E+00,1.673E+03,837.,1.351E+03,551.,448.,448.,93.6,66.2
1979-02-27 03:58:42.290 ,1979-02-27 03:59:23.850 ,8,1,6.649E+03,6.649E+03,9.597E+03,2.093E+03,2.062E+03,687.,1.701E+03,643.,184.,184.
1979-02-27 03:59:23.920 ,1979-02-27 03:59:29.850 ,8,-1,-1.00,-1.00,1.138E+04,3.793E+03,4.876E+03,1.842E+03,1.437E+03,1.437E+03,226.,226.
1979-02-27 03:59:30.290 ,1979-02-27 03:59:53.850 ,7,-1,5.905E+03,5.905E+03,2.829E+03,2.001E+03,0.000E+00,0.000E+00,0.000E+00,0.000E+00,0.000E+00,0.000E+00
1979-02-27 03:59:54.290 ,1979-02-27 04:00:17.850 ,6,-1,2.067E+04,2.067E+04,5.866E+03,1.627E+03,826.,413.,0.000E+00,0.000E+00,0.000E+00,0.000E+00
1979-02-27 04:00:18.290 ,1979-02-27 04:00:41.850 ,5,-1,5.905E+03,5.905E+03,4.248E+03,2.453E+03,654.,654.,0.000E+00,0.000E+00,0.000E+00,0.000E+00
1979-02-27 04:00:42.290 ,1979-02-27 04:01:05.850 ,4,-1,1.379E+04,1.379E+04,3.617E+03,1.278E+03,404.,286.,283.,283.,78.8,78.8
1979-02-27 04:01:06.290 ,1979-02-27 04:01:29.850 ,3,-1,1.181E+04,8.350E+03,2.795E+03,1.976E+03,676.,676.,0.000E+00,0.000E+00,413.,413.
1979-02-27 04:01:30.290 ,1979-02-27 04:01:53.850 ,2,-1,8.193E+03,8.193E+03,4.151E+03,1.384E+03,623.,360.,337.,337.,93.6,66.2
1979-02-27 04:01:53.920 ,1979-02-27 04:02:18.290 ,1,-1,0.000E+00,0.000E+00,1.981E+04,1.981E+04,0.000E+00,0.000E+00,0.000E+00,0.000E+00,0.000E+00,0.000E+00
1979-02-27 04:02:18.290 ,1979-02-27 04:02:41.850 ,1,1,0.000E+00,0.000E+00,2.296E+03,1.027E+03,422.,298.,425.,300.,109.,109.
1979-02-27 04:02:42.290 ,1979-02-27 04:03:05.850 ,2,1,0.000E+00,0.000E+00,2.669E+03,1.887E+03,1.403E+03,992.,889.,889.,0.000E+00,0.000E+00
1979-02-27 04:03:06.290 ,1979-02-27 04:03:29.850 ,3,1,4.134E+04,2.923E+04,2.704E+03,1.104E+03,193.,193.,212.,212.,0.000E+00,0.000E+00
1979-02-27 04:03:30.290 ,1979-02-27 04:03:53.850 ,4,1,0.000E+00,0.000E+00,1.167E+03,1.167E+03,2.112E+03,1.220E+03,0.000E+00,0.000E+00,0.000E+00,0.000E+00
1979-02-27 04:03:54.290 ,1979-02-27 04:04:17.850 ,5,1,2.067E+04,2.067E+04,2.200E+03,984.,670.,387.,0.000E+00,0.000E+00,0.000E+00,0.000E+00
1979-02-27 04:04:18.290 ,1979-02-27 04:04:41.850 ,6,1,0.000E+00,0.000E+00,2.795E+03,1.976E+03,676.,676.,0.000E+00,0.000E+00,0.000E+00,0.000E+00
1979-02-27 04:04:42.290 ,1979-02-27 04:05:05.850 ,7,1,0.000E+00,0.000E+00,2.162E+03,967.,885.,442.,380.,380.,93.6,66.2
1979-02-27 04:05:06.290 ,1979-02-27 04:05:47.850 ,8,1,0.000E+00,0.000E+00,9.991E+03,2.129E+03,3.933E+03,954.,1.834E+03,820.,252.,178.
1979-02-27 04:05:47.920 ,1979-02-27 04:05:53.850 ,8,-1,-1.00,-1.00,1.649E+04,4.759E+03,505.,505.,623.,623.,226.,226.
1979-02-27 04:05:54.290 ,1979-02-27 04:06:17.850 ,7,-1,0.000E+00,0.000E+00,1.237E+03,1.237E+03,1.417E+03,1.002E+03,0.000E+00,0.000E+00,413.,413.
1979-02-27 04:06:18.290 ,1979-02-27 04:06:41.850 ,6,-1,0.000E+00,0.000E+00,2.177E+03,974.,1.115E+03,499.,0.000E+00,0.000E+00,236.,167.
1979-02-27 04:06:42.290 ,1979-02-27 04:07:05.850 ,5,-1,5.905E+03,5.905E+03,0.000E+00,0.000E+00,0.000E+00,0.000E+00,1.175E+03,1.175E+03,0.000E+00,0.000E+00
1979-02-27 04:07:06.290 ,1979-02-27 04:07:29.850 ,4,-1,0.000E+00,0.000E+00,5.384E+03,1.554E+03,173.,173.,212.,212.,78.8,78.8
1979-02-27 04:07:30.290 ,1979-02-27 04:07:53.850 ,3,-1,5.905E+03,5.905E+03,0.000E+00,0.000E+00,1.313E+03,928.,889.,889.,0.000E+00,0.000E+00
1979-02-27 04:07:54.290 ,1979-02-27 04:08:17.850 ,2,-1,0.000E+00,0.000E+00,2.257E+03,1.009E+03,652.,377.,498.,352.,0.000E+00,0.000E+00
1979-02-27 04:08:17.920 ,1979-02-27 04:08:42.290 ,1,-1,0.000E+00,0.000E+00,0.000E+00,0.000E+00,0.000E+00,0.000E+00,0.000E+00,0.000E+00,0.000E+00,0.000E+00
1979-02-27 04:08:42.290 ,1979-02-27 04:09:05.850 ,1,1,0.000E+00,0.000E+00,1.663E+03,832.,1.123E+03,502.,623.,440.,0.000E+00,0.000E+00
1979-02-27 04:09:06.290 ,1979-02-27 04:09:29.850 ,2,1,0.000E+00,0.000E+00,1.335E+03,1.335E+03,701.,701.,668.,668.,0.000E+00,0.000E+00
1979-02-27 04:09:30.290 ,1979-02-27 04:09:53.850 ,3,1,0.000E+00,0.000E+00,4.447E+03,1.406E+03,1.076E+03,481.,0.000E+00,0.000E+00,118.,118.
1979-02-27 04:09:54.290 ,1979-02-27 04:10:17.850 ,4,1,5.905E+03,5.905E+03,2.795E+03,1.976E+03,676.,676.,668.,668.,0.000E+00,0.000E+00
1979-02-27 04:10:18.290 ,1979-02-27 04:10:41.850 ,5,1,0.000E+00,0.000E+00,3.941E+03,1.313E+03,1.315E+03,537.,448.,448.,0.000E+00,0.000E+00
1979-02-27 04:10:42.290 ,1979-02-27 04:11:05.850 ,6,1,5.905E+03,5.905E+03,3.047E+03,2.154E+03,0.000E+00,0.000E+00,0.000E+00,0.000E+00,413.,413.
1979-02-27 04:11:06.290 ,1979-02-27 04:11:29.850 ,7,1,0.000E+00,0.000E+00,4.038E+03,1.346E+03,1.313E+03,536.,448.,448.,78.8,78.8